Terug naar catalogus

CZ-6A DEB

ActiefPO
NORAD 54484·DEBRIS·🇨🇳 China

Gelanceerd Nov 11, 2022 vanaf Taiyuan Satellite Launch Center

Loading…

Volgende Passages (komende 24 uur)

TLE

VersSource: Space-Track

Epoch: Sep 14, 2026, 04:18 UTC

1 54484U 22151HL  26257.17928029  .00010936  00000-0  12974-2 0  9990
2 54484  98.6132 337.5545 0054693 324.8782  34.8828 14.83616482203628

Volg CZ-6A DEB in realtime met AllMySat

Download on the App Store